Погода в Хрущёвке

Россия / Липецкая область     52°32′09″N   39°30′12″E
темп.,
°C
ветер,
м/с
пор.,
м/с
влажн.,
%
обл.,
%
осадки,
мм/ч
давл.,
гПа
погр.,
м
23 сентября, чт
чт2300:00+9зюз1283100 0.0 1013135
03:00+8ююз1286100 0.2 101377
06:00+8ююз1186100 0.0 101335
09:00+9ююз3379100 0.0 1013396
12:00+12ююз2360100 0.1 10131217
15:00+12ююз2358100 0.4 10121128
18:00+11ююз2367100 0.2 101280
21:00+8юз2280100 0.3 101223
24 сентября, пт
пт2400:00+7юз228797 0.0 101238
03:00+8ююз258594 0.0 1011211
06:00+8ю268795 0.1 1010294
09:00+9ю587894 0.1 1009595
12:00+10ю6963100 0.0 10081037
15:00+12ююз6951100 0.1 10061934
18:00+11ю5956100 0.0 1006963
21:00+9ю5974100 0.1 10061174
25 сентября, сб
сб2500:00+9ююв4982100 0.1 1005667
03:00+8ююв4887100 0.4 1005626
06:00+8ююв3789100 0.3 1006416
09:00+9ююв248797 0.4 1007369
12:00+11ю227885 0.1 1008638
15:00+13ю226379 0.1 10081041
18:00+12ююв227292 0.0 100960
21:00+11ю2478100 0.0 1010101
26 сентября, вс
вс2600:00+10юз368185 0.0 1010179
03:00+8юз3686100 0.0 1010131
06:00+9юз3692100 0.4 1009260
09:00+9ююз2597100 4.4 1008351
12:00+11зсз478898 0.6 1008789
15:00+12ссз797465 1.3 10091098
18:00+10сз61186100 0.4 1010779
21:00+9ссз61086100 0.8 1011992
27 сентября, пн
пн2700:00+9ссз5993100 0.6 1012610
03:00+9ссз5894100 0.9 1014414
06:00+9с51092100 0.2 1016412
09:00+9с51090100 0.3 1018409
12:00+11ссв577969 0.0 1020606
15:00+13с676471 0.0 10201222
18:00+11с487480 0.1 1022217
21:00+10ссв48775 0.1 1023550